Flag for Japan Weather past 2 weeks in Yokohama, Japan

Now
68 °F

Partly sunny.


Feels Like: 68 °F
Forecast: 65 / 75 °F
Wind: 2 mph from East

Location: Tokyo International Airport

Current Time: Oct 2, 2014 at 7:21:13 AM

Latest Report: Oct 2, 2014 at 7:00 AM


Visibility: N/A

Pressure: 30.01 "Hg

Humidity: 78%

Dew point: 61 °F

Location of YokohamaLocation

Historic Weather in Yokohama — Graph

°F

Yokohama temperature yesterday

Maximum temperature yesterday: 73 °F (at 4:30 AM)
Minimum temperature yesterday: 68 °F (at 10:00 AM)
Average temperature yesterday: 69 °F

Past Weeks' High & Low Weather Summary

 TemperatureHumidityPressure
High82 °F (Sep 25, 2:00 PM)94% (Sep 24, 5:30 PM)30.18 "Hg (Sep 24, 5:30 PM)
Low63 °F (Sep 21, 4:30 AM)31% (Sep 18, 7:30 PM)29.50 "Hg (Sep 25, 1:30 PM)
Average71 °F68%29.93 "Hg
* Reported Sep 17 6:00 AM — Oct 2 6:00 AM, Yokohama, Weather by CustomWeather, © 2014

Note: Actual official high and low records may vary slightly from our data, if they occured in-between our weather recording intervals... More about our weather records

Advertising

Yokohama weather history for previous 24 hours

 ConditionsComfort  
Time TempWeatherWind HumidityBarometerVisibility
6:00 AM
Oct 2
66 °FBroken clouds.3 mph83%30.01 "HgN/A
5:30 AM66 °FPassing clouds.3 mph83%30.01 "HgN/A
5:00 AM66 °FPassing clouds.7 mph83%30.01 "HgN/A
4:30 AM68 °FPassing clouds.8 mph78%29.98 "HgN/A
4:00 AM68 °FPassing clouds.7 mph78%29.98 "HgN/A
3:30 AM68 °FPassing clouds.7 mph78%30.01 "HgN/A
3:00 AM68 °FPartly cloudy.8 mph78%30.01 "HgN/A
2:30 AM68 °FPassing clouds.12 mph78%30.01 "HgN/A
2:00 AM68 °FPassing clouds.7 mph78%30.01 "HgN/A
1:30 AM68 °FPassing clouds.7 mph78%30.01 "HgN/A
1:00 AM68 °FPassing clouds.7 mph78%30.01 "HgN/A
12:30 AM68 °FPassing clouds.7 mph78%30.04 "HgN/A
12:00 AM68 °FPassing clouds.8 mph78%30.04 "HgN/A
11:30 PM
Oct 1
68 °FPassing clouds.9 mph78%30.04 "HgN/A
11:00 PM68 °FPassing clouds.9 mph78%30.04 "HgN/A
10:30 PM68 °FPassing clouds.9 mph78%30.04 "HgN/A
10:00 PM68 °FPassing clouds.9 mph78%30.04 "HgN/A
9:30 PM68 °FPassing clouds.9 mph78%30.04 "HgN/A
9:00 PM68 °FPassing clouds.12 mph78%30.04 "HgN/A
8:30 PM68 °FPassing clouds.13 mph78%30.07 "HgN/A
8:00 PM68 °FPassing clouds.12 mph78%30.07 "HgN/A
7:30 PM68 °FSprinkles. Partly cloudy.12 mph78%30.04 "HgN/A
7:00 PM68 °FPartly cloudy.14 mph78%30.04 "HgN/A
6:30 PM68 °FPartly cloudy.12 mph78%30.04 "HgN/A
6:00 PM68 °FPartly cloudy.13 mph78%30.04 "HgN/A
5:30 PM68 °FSprinkles. Passing clouds.16 mph83%30.04 "HgN/A
5:00 PM68 °FSprinkles. Partly sunny.15 mph83%30.04 "HgN/A
4:30 PM68 °FSprinkles. Broken clouds.17 mph78%30.01 "HgN/A
4:00 PM68 °FSprinkles. Partly sunny.18 mph78%30.01 "HgN/A
3:30 PM68 °FPartly sunny.17 mph83%30.01 "HgN/A
3:00 PM68 °FPartly sunny.20 mph83%30.01 "HgN/A
2:30 PM68 °FSprinkles. Partly sunny.15 mph83%30.01 "Hg4 mi
2:00 PM68 °FSprinkles. Partly sunny.16 mph83%30.01 "Hg4 mi
1:30 PM68 °FSprinkles. Broken clouds.16 mph83%30.01 "Hg5 mi
1:00 PM68 °FSprinkles. Broken clouds.13 mph88%30.01 "Hg5 mi
12:30 PM68 °FSprinkles. Fog.15 mph83%30.01 "Hg4 mi
11:30 AM70 °FBroken clouds.15 mph78%30.01 "HgN/A
11:00 AM70 °FSprinkles. Partly sunny.17 mph83%30.01 "HgN/A
10:30 AM68 °FSprinkles. Partly sunny.16 mph88%30.01 "Hg4 mi
10:00 AM68 °FSprinkles. Fog.16 mph88%30.01 "Hg6 mi
9:30 AM70 °FSprinkles. Broken clouds.14 mph88%30.01 "HgN/A
9:00 AM70 °FSprinkles. Broken clouds.9 mph88%30.01 "Hg6 mi
8:30 AM70 °FRain showers. Fog.14 mph83%30.01 "Hg5 mi
8:00 AM70 °FRain showers. Fog.14 mph83%30.01 "HgN/A
7:30 AM72 °FRain showers. Fog.13 mph78%30.01 "HgN/A
7:00 AM72 °FSprinkles. Partly sunny.12 mph88%30.01 "HgN/A
Weather by CustomWeather, © 2014

See weather overviewHow to use our weather pages